Retour au catalogue

FENGYUN 1C DEB

ActifSSO
NORAD 30507·DEBRIS·🇨🇳 China

Lancé May 10, 1999 depuis Taiyuan Satellite Launch Center

Loading…

Prochains Passages (prochaines 24 heures)

TLE

FraisSource: Space-Track

Époque: Sep 14, 2026, 22:05 UTC

1 30507U 99025AHV 26257.92060854  .00001733  00000-0  86172-3 0  9997
2 30507  98.9936 329.3000 0128254 115.8905 301.8213 14.14179793  3893

Suivez FENGYUN 1C DEB en temps réel avec AllMySat

Download on the App Store